| time (UTC) | temp F | wind direction | speed knots | gust knots | rain 1hr in | rain 24hr in | rain mn in | humidity % | barometer mb |
| 20260903062413 | 72 | 0 | 0.9 | 0.9 | 0.00 | 0.00 | 0.00 | 91 | 1009.8 |
| 20260903061826 | 72 | 0 | 0.0 | 0.0 | 0.00 | 0.00 | 0.00 | 91 | 1009.8 |
| 20260903061224 | 73 | 0 | 0.0 | 0.0 | 0.00 | 0.00 | 0.00 | 90 | 1009.8 |
| 20260903060643 | 72 | 0 | 0.0 | 0.0 | 0.00 | 0.00 | 0.00 | 90 | 1009.8 |
| 20260903060022 | 72 | 22 | 0.0 | 0.0 | 0.00 | 0.00 | 0.00 | 91 | 1009.8 |
| 20260903055421 | 72 | 22 | 0.0 | 0.0 | 0.00 | 0.00 | 0.00 | 90 | 1010.8 |
| 20260903054841 | 72 | 45 | 0.0 | 0.0 | 0.00 | 0.00 | 0.00 | 91 | 1010.8 |
| 20260903054241 | 72 | 45 | 0.0 | 0.0 | 0.00 | 0.00 | 0.00 | 91 | 1009.8 |
| 20260903053630 | 73 | 45 | 0.0 | 0.0 | 0.00 | 0.00 | 0.00 | 91 | 1009.8 |
| 20260903053045 | 72 | 45 | 0.0 | 0.0 | 0.00 | 0.00 | 0.00 | 91 | 1009.8 |
| 20260903052414 | 72 | 45 | 0.0 | 0.0 | 0.00 | 0.00 | 0.00 | 91 | 1010.8 |
| 20260903051837 | 72 | 45 | 0.0 | 0.0 | 0.00 | 0.00 | 0.00 | 91 | 1010.8 |
| 20260903051246 | 72 | 45 | 0.0 | 0.0 | 0.00 | 0.00 | 0.00 | 92 | 1009.8 |
| 20260903050044 | 72 | 68 | 0.0 | 0.0 | 0.00 | 0.00 | 0.00 | 92 | 1009.8 |
| 20260903045423 | 72 | 68 | 0.9 | 0.9 | 0.00 | 0.00 | 0.00 | 92 | 1009.8 |
| 20260903044820 | 72 | 68 | 2.6 | 2.6 | 0.00 | 0.00 | 0.00 | 92 | 1009.8 |
| 20260903044241 | 72 | 90 | 1.7 | 1.7 | 0.00 | 0.00 | 0.00 | 92 | 1009.8 |
| 20260903043608 | 72 | 292 | 0.0 | 0.0 | 0.00 | 0.00 | 0.00 | 92 | 1009.8 |
| 20260903042436 | 72 | 292 | 0.0 | 0.0 | 0.00 | 0.00 | 0.00 | 93 | 1009.8 |
| 20260903041809 | 72 | 292 | 0.0 | 0.0 | 0.00 | 0.00 | 0.00 | 93 | 1009.8 |
| 20260903040636 | 72 | 292 | 0.0 | 0.0 | 0.00 | 0.00 | 0.00 | 92 | 1010.8 |
| 20260903033647 | 73 | 292 | 0.0 | 0.0 | 0.00 | 0.00 | 0.00 | 92 | 1010.8 |
| 20260903033021 | 73 | 292 | 0.0 | 0.0 | 0.00 | 0.00 | 0.00 | 92 | 1010.8 |
| 20260903032429 | 73 | 292 | 0.0 | 0.0 | 0.00 | 0.00 | 0.00 | 92 | 1010.8 |
| 20260903031847 | 73 | 292 | 0.0 | 0.0 | 0.00 | 0.00 | 0.00 | 92 | 1010.8 |
| 20260903031227 | 73 | 292 | 0.0 | 0.0 | 0.00 | 0.00 | 0.00 | 91 | 1010.8 |
| 20260903030031 | 73 | 292 | 0.0 | 0.0 | 0.00 | 0.00 | 0.00 | 91 | 1010.8 |
| 20260903025421 | 73 | 292 | 0.0 | 0.0 | 0.00 | 0.00 | 0.00 | 92 | 1010.8 |
| 20260903024819 | 73 | 292 | 0.0 | 0.0 | 0.00 | 0.00 | 0.00 | 91 | 1010.8 |
| 20260903024240 | 73 | 292 | 0.0 | 0.0 | 0.00 | 0.00 | 0.00 | 91 | 1010.8 |
| 20260903023031 | 74 | 292 | 0.0 | 0.0 | 0.00 | 0.00 | 0.00 | 91 | 1010.8 |
| 20260903022413 | 74 | 292 | 0.0 | 0.0 | 0.00 | 0.00 | 0.00 | 90 | 1010.8 |
| 20260903021832 | 74 | 292 | 0.0 | 0.0 | 0.00 | 0.00 | 0.00 | 90 | 1010.8 |
| 20260903021225 | 74 | 292 | 0.0 | 0.0 | 0.00 | 0.00 | 0.00 | 90 | 1010.8 |
| 20260903020614 | 74 | 292 | 0.0 | 0.0 | 0.00 | 0.00 | 0.00 | 90 | 1010.8 |
| 20260903020031 | 74 | 292 | 0.0 | 0.0 | 0.00 | 0.00 | 0.00 | 90 | 1010.8 |
| 20260903014825 | 75 | 292 | 0.0 | 0.0 | 0.00 | 0.00 | 0.00 | 89 | 1010.8 |
| 20260903013041 | 76 | 292 | 0.0 | 0.0 | 0.00 | 0.00 | 0.00 | 87 | 1010.8 |
| 20260903012417 | 76 | 292 | 0.0 | 0.0 | 0.00 | 0.00 | 0.00 | 85 | 1009.8 |
| 20260903011247 | 76 | 292 | 0.0 | 0.0 | 0.00 | 0.00 | 0.00 | 86 | 1009.8 |
| 20260903010631 | 76 | 292 | 0.0 | 0.0 | 0.00 | 0.00 | 0.00 | 85 | 1009.8 |
| 20260903010042 | 76 | 292 | 0.0 | 0.0 | 0.00 | 0.00 | 0.00 | 86 | 1009.8 |
| 20260903005428 | 76 | 292 | 0.0 | 0.0 | 0.00 | 0.00 | 0.00 | 86 | 1009.8 |
| 20260903004849 | 77 | 292 | 0.0 | 0.0 | 0.00 | 0.00 | 0.00 | 86 | 1009.8 |
| 20260903004227 | 77 | 292 | 0.0 | 0.0 | 0.00 | 0.00 | 0.00 | 84 | 1009.8 |
| 20260903003640 | 78 | 292 | 0.0 | 0.0 | 0.00 | 0.00 | 0.00 | 83 | 1009.8 |
| 20260903002418 | 79 | 292 | 0.9 | 0.9 | 0.00 | 0.00 | 0.00 | 81 | 1009.8 |
| 20260903001845 | 79 | 292 | 0.0 | 0.0 | 0.00 | 0.00 | 0.00 | 80 | 1009.8 |
| 20260903001207 | 79 | 292 | 0.0 | 0.0 | 0.00 | 0.00 | 0.00 | 81 | 1009.8 |
| 20260903000622 | 80 | 292 | 0.0 | 0.0 | 0.00 | 0.00 | 0.00 | 79 | 1009.8 |
| 20260903000030 | 79 | 292 | 0.0 | 0.0 | 0.00 | 0.00 | 0.00 | 79 | 1009.8 |
| 20260902235426 | 80 | 292 | 0.9 | 0.9 | 0.00 | 0.00 | 0.00 | 79 | 1009.8 |
| 20260902234827 | 81 | 292 | 0.0 | 0.0 | 0.00 | 0.00 | 0.00 | 78 | 1009.8 |
| 20260902234231 | 82 | 292 | 0.0 | 0.0 | 0.00 | 0.00 | 0.00 | 75 | 1009.8 |
| 20260902232448 | 82 | 292 | 0.0 | 0.0 | 0.00 | 0.00 | 0.00 | 73 | 1009.8 |
| 20260902231807 | 82 | 292 | 0.0 | 0.0 | 0.00 | 0.00 | 0.00 | 72 | 1009.8 |
| 20260902230636 | 84 | 292 | 0.0 | 0.0 | 0.00 | 0.00 | 0.00 | 69 | 1009.8 |
| 20260902225422 | 85 | 292 | 0.0 | 0.0 | 0.00 | 0.00 | 0.00 | 68 | 1009.8 |
| 20260902224832 | 86 | 292 | 0.0 | 0.0 | 0.00 | 0.00 | 0.00 | 65 | 1009.8 |
| 20260902224238 | 89 | 292 | 0.0 | 0.0 | 0.00 | 0.00 | 0.00 | 62 | 1009.8 |
| 20260902223649 | 92 | 292 | 0.0 | 0.0 | 0.00 | 0.00 | 0.00 | 56 | 1009.8 |
| 20260902223034 | 94 | 292 | 0.0 | 0.0 | 0.00 | 0.00 | 0.00 | 52 | 1009.8 |
| 20260902222413 | 93 | 292 | 0.9 | 0.9 | 0.00 | 0.00 | 0.00 | 51 | 1009.8 |
| 20260902221814 | 94 | 292 | 0.9 | 0.9 | 0.00 | 0.00 | 0.00 | 53 | 1009.8 |
| 20260902221219 | 95 | 22 | 0.0 | 0.0 | 0.00 | 0.00 | 0.00 | 49 | 1009.8 |
| 20260902220629 | 92 | 22 | 0.0 | 0.0 | 0.00 | 0.00 | 0.00 | 50 | 1009.8 |
| 20260902220047 | 91 | 22 | 0.0 | 0.0 | 0.00 | 0.00 | 0.00 | 52 | 1009.8 |
| 20260902215407 | 92 | 22 | 0.0 | 0.0 | 0.00 | 0.00 | 0.00 | 54 | 1009.8 |
| 20260902214848 | 93 | 22 | 0.0 | 0.0 | 0.00 | 0.00 | 0.00 | 55 | 1009.8 |
| 20260902214236 | 93 | 22 | 0.9 | 0.9 | 0.00 | 0.00 | 0.00 | 52 | 1009.8 |
| 20260902213633 | 94 | 22 | 0.9 | 0.9 | 0.00 | 0.00 | 0.00 | 52 | 1009.8 |
| 20260902213030 | 94 | 22 | 0.9 | 0.9 | 0.00 | 0.00 | 0.00 | 50 | 1009.8 |
| 20260902212428 | 94 | 315 | 0.0 | 0.0 | 0.00 | 0.00 | 0.00 | 48 | 1008.8 |
| 20260902211842 | 94 | 68 | 1.7 | 1.7 | 0.00 | 0.00 | 0.00 | 49 | 1008.8 |
| 20260902210614 | 97 | 0 | 0.9 | 0.9 | 0.00 | 0.00 | 0.00 | 46 | 1009.8 |
| 20260902210017 | 96 | 225 | 0.0 | 0.0 | 0.00 | 0.00 | 0.00 | 48 | 1009.8 |
| 20260902205407 | 97 | 202 | 1.7 | 1.7 | 0.00 | 0.00 | 0.00 | 48 | 1009.8 |
| 20260902204845 | 97 | 180 | 0.0 | 0.0 | 0.00 | 0.00 | 0.00 | 44 | 1009.8 |
| 20260902204243 | 97 | 248 | 0.9 | 0.9 | 0.00 | 0.00 | 0.00 | 40 | 1009.8 |
| 20260902203641 | 96 | 248 | 0.0 | 0.0 | 0.00 | 0.00 | 0.00 | 42 | 1009.8 |
| 20260902203013 | 96 | 202 | 1.7 | 1.7 | 0.00 | 0.00 | 0.00 | 39 | 1009.8 |
| 20260902202412 | 97 | 315 | 0.0 | 0.0 | 0.00 | 0.00 | 0.00 | 39 | 1009.8 |
| 20260902201809 | 96 | 248 | 1.7 | 1.7 | 0.00 | 0.00 | 0.00 | 43 | 1009.8 |
| 20260902201247 | 94 | 248 | 0.0 | 0.0 | 0.00 | 0.00 | 0.00 | 37 | 1009.8 |
| 20260902200642 | 95 | 68 | 1.7 | 1.7 | 0.00 | 0.00 | 0.00 | 41 | 1009.8 |
| 20260902194813 | 96 | 248 | 0.0 | 0.0 | 0.00 | 0.00 | 0.00 | 39 | 1009.8 |
| 20260902194231 | 95 | 112 | 0.9 | 0.9 | 0.00 | 0.00 | 0.00 | 40 | 1009.8 |
| 20260902193638 | 95 | 135 | 0.9 | 0.9 | 0.00 | 0.00 | 0.00 | 40 | 1009.8 |
| 20260902193024 | 94 | 180 | 0.9 | 0.9 | 0.00 | 0.00 | 0.00 | 40 | 1009.8 |
| 20260902192449 | 94 | 112 | 0.0 | 0.0 | 0.00 | 0.00 | 0.00 | 41 | 1010.8 |
| 20260902191835 | 94 | 202 | 0.9 | 0.9 | 0.00 | 0.00 | 0.00 | 40 | 1010.8 |
| 20260902190627 | 95 | 315 | 2.6 | 2.6 | 0.00 | 0.00 | 0.00 | 37 | 1009.8 |
| 20260902190016 | 95 | 248 | 2.6 | 2.6 | 0.00 | 0.00 | 0.00 | 38 | 1009.8 |
| 20260902185448 | 95 | 338 | 0.9 | 0.9 | 0.00 | 0.00 | 0.00 | 36 | 1010.8 |
| 20260902184841 | 94 | 315 | 1.7 | 1.7 | 0.00 | 0.00 | 0.00 | 36 | 1010.8 |
| 20260902183609 | 92 | 248 | 2.6 | 2.6 | 0.00 | 0.00 | 0.00 | 44 | 1010.8 |
| 20260902183035 | 92 | 202 | 1.7 | 1.7 | 0.00 | 0.00 | 0.00 | 45 | 1010.8 |
| 20260902182443 | 92 | 225 | 1.7 | 1.7 | 0.00 | 0.00 | 0.00 | 48 | 1010.8 |
| 20260902181247 | 93 | 292 | 1.7 | 1.7 | 0.00 | 0.00 | 0.00 | 49 | 1010.8 |
| 20260902180645 | 93 | 248 | 1.7 | 1.7 | 0.00 | 0.00 | 0.00 | 46 | 1010.8 |
| 20260902180012 | 92 | 68 | 0.9 | 0.9 | 0.00 | 0.00 | 0.00 | 51 | 1010.8 |
| 20260902175423 | 92 | 112 | 1.7 | 1.7 | 0.00 | 0.00 | 0.00 | 52 | 1011.8 |
| 20260902174813 | 91 | 68 | 1.7 | 1.7 | 0.00 | 0.00 | 0.00 | 50 | 1011.8 |
| 20260902174234 | 92 | 248 | 1.7 | 1.7 | 0.00 | 0.00 | 0.00 | 49 | 1010.8 |
| 20260902173634 | 92 | 112 | 1.7 | 1.7 | 0.00 | 0.00 | 0.00 | 50 | 1010.8 |
| 20260902173028 | 91 | 180 | 1.7 | 1.7 | 0.00 | 0.00 | 0.00 | 48 | 1010.8 |
| 20260902172444 | 91 | 112 | 0.9 | 0.9 | 0.00 | 0.00 | 0.00 | 50 | 1011.8 |
| 20260902171817 | 90 | 180 | 0.0 | 0.0 | 0.00 | 0.00 | 0.00 | 51 | 1011.8 |
| 20260902171206 | 91 | 180 | 1.7 | 1.7 | 0.00 | 0.00 | 0.00 | 54 | 1011.8 |
| 20260902170647 | 92 | 68 | 0.9 | 0.9 | 0.00 | 0.00 | 0.00 | 54 | 1011.8 |
| 20260902170024 | 93 | 68 | 0.9 | 0.9 | 0.00 | 0.00 | 0.00 | 51 | 1011.8 |
| 20260902165424 | 92 | 112 | 1.7 | 1.7 | 0.00 | 0.00 | 0.00 | 50 | 1011.8 |
| 20260902164207 | 92 | 68 | 1.7 | 1.7 | 0.00 | 0.00 | 0.00 | 52 | 1011.8 |
| 20260902163612 | 92 | 270 | 1.7 | 1.7 | 0.00 | 0.00 | 0.00 | 52 | 1011.8 |
| 20260902163010 | 92 | 112 | 0.0 | 0.0 | 0.00 | 0.00 | 0.00 | 54 | 1011.8 |
| 20260902162424 | 91 | 112 | 0.0 | 0.0 | 0.00 | 0.00 | 0.00 | 57 | 1011.8 |
| 20260902161822 | 92 | 248 | 5.2 | 6.1 | 0.00 | 0.00 | 0.00 | 53 | 1011.8 |
| 20260902161215 | 91 | 248 | 1.7 | 1.7 | 0.00 | 0.00 | 0.00 | 54 | 1011.8 |
| 20260902160043 | 89 | 90 | 0.0 | 0.0 | 0.00 | 0.00 | 0.00 | 57 | 1011.8 |
| 20260902155438 | 88 | 90 | 1.7 | 1.7 | 0.00 | 0.00 | 0.00 | 64 | 1011.8 |
| 20260902154817 | 88 | 90 | 1.7 | 1.7 | 0.00 | 0.00 | 0.00 | 59 | 1011.8 |
| 20260902154230 | 88 | 68 | 2.6 | 2.6 | 0.00 | 0.00 | 0.00 | 63 | 1011.8 |
| 20260902153033 | 88 | 68 | 0.9 | 0.9 | 0.00 | 0.00 | 0.00 | 64 | 1011.8 |
| 20260902152412 | 88 | 68 | 1.7 | 1.7 | 0.00 | 0.00 | 0.00 | 66 | 1012.8 |
| 20260902151838 | 87 | 68 | 1.7 | 1.7 | 0.00 | 0.00 | 0.00 | 64 | 1012.8 |
| 20260902150029 | 86 | 68 | 1.7 | 1.7 | 0.00 | 0.00 | 0.00 | 68 | 1011.8 |
| 20260902145445 | 85 | 68 | 1.7 | 1.7 | 0.00 | 0.00 | 0.00 | 67 | 1011.8 |
| 20260902144233 | 85 | 68 | 0.0 | 0.0 | 0.00 | 0.00 | 0.00 | 68 | 1011.8 |
| 20260902143627 | 86 | 45 | 1.7 | 1.7 | 0.00 | 0.00 | 0.00 | 69 | 1011.8 |
| 20260902143043 | 87 | 45 | 1.7 | 1.7 | 0.00 | 0.00 | 0.00 | 65 | 1011.8 |
| 20260902142438 | 85 | 45 | 0.9 | 0.9 | 0.00 | 0.00 | 0.00 | 63 | 1011.8 |
| 20260902141822 | 84 | 45 | 0.0 | 0.0 | 0.00 | 0.00 | 0.00 | 66 | 1011.8 |
| 20260902141225 | 84 | 45 | 1.7 | 1.7 | 0.00 | 0.00 | 0.00 | 67 | 1011.8 |
| 20260902140643 | 82 | 45 | 0.0 | 0.0 | 0.00 | 0.00 | 0.00 | 66 | 1011.8 |
| 20260902140014 | 78 | 45 | 0.0 | 0.0 | 0.00 | 0.00 | 0.00 | 71 | 1011.8 |
| 20260902135430 | 77 | 45 | 0.0 | 0.0 | 0.00 | 0.00 | 0.00 | 80 | 1011.8 |
| 20260902134845 | 78 | 45 | 0.0 | 0.0 | 0.00 | 0.00 | 0.00 | 79 | 1011.8 |
| 20260902134207 | 77 | 292 | 0.0 | 0.0 | 0.00 | 0.00 | 0.00 | 76 | 1012.8 |
| 20260902133612 | 75 | 292 | 0.0 | 0.0 | 0.00 | 0.00 | 0.00 | 79 | 1012.8 |
| 20260902133016 | 73 | 292 | 0.0 | 0.0 | 0.00 | 0.00 | 0.00 | 82 | 1012.8 |
| 20260902132406 | 72 | 292 | 0.0 | 0.0 | 0.00 | 0.00 | 0.00 | 87 | 1011.8 |
| 20260902131229 | 71 | 292 | 0.0 | 0.0 | 0.00 | 0.00 | 0.00 | 89 | 1011.8 |
| 20260902130010 | 70 | 292 | 0.9 | 0.9 | 0.00 | 0.00 | 0.00 | 90 | 1011.8 |
| 20260902125429 | 70 | 338 | 0.0 | 0.0 | 0.00 | 0.00 | 0.00 | 91 | 1011.8 |
| 20260902123634 | 70 | 292 | 0.0 | 0.0 | 0.00 | 0.00 | 0.00 | 92 | 1011.8 |
| 20260902122449 | 70 | 270 | 0.0 | 0.0 | 0.00 | 0.00 | 0.00 | 92 | 1011.8 |
| 20260902121822 | 69 | 270 | 0.0 | 0.0 | 0.00 | 0.00 | 0.00 | 92 | 1011.8 |
| 20260902121239 | 69 | 270 | 0.0 | 0.0 | 0.00 | 0.00 | 0.00 | 92 | 1011.8 |
| 20260902120627 | 69 | 270 | 0.0 | 0.0 | 0.00 | 0.00 | 0.00 | 92 | 1011.8 |
| 20260902120044 | 69 | 270 | 0.0 | 0.0 | 0.00 | 0.00 | 0.00 | 92 | 1011.8 |
| 20260902115429 | 69 | 270 | 0.0 | 0.0 | 0.00 | 0.00 | 0.00 | 93 | 1012.8 |
| 20260902114825 | 69 | 270 | 0.0 | 0.0 | 0.00 | 0.00 | 0.00 | 93 | 1012.8 |
| 20260902114231 | 69 | 270 | 0.0 | 0.0 | 0.00 | 0.00 | 0.00 | 93 | 1011.8 |
| 20260902113642 | 69 | 270 | 0.0 | 0.0 | 0.00 | 0.00 | 0.00 | 93 | 1011.8 |
| 20260902113050 | 69 | 270 | 0.0 | 0.0 | 0.00 | 0.00 | 0.00 | 93 | 1011.8 |
| 20260902112431 | 69 | 270 | 0.0 | 0.0 | 0.00 | 0.00 | 0.00 | 93 | 1011.8 |
| 20260902111830 | 69 | 270 | 0.0 | 0.0 | 0.00 | 0.00 | 0.00 | 93 | 1011.8 |
| 20260902111235 | 69 | 270 | 0.0 | 0.0 | 0.00 | 0.00 | 0.00 | 93 | 1011.8 |
| 20260902110637 | 69 | 270 | 0.0 | 0.0 | 0.00 | 0.00 | 0.00 | 93 | 1011.8 |
| 20260902110025 | 69 | 270 | 1.7 | 1.7 | 0.00 | 0.00 | 0.00 | 93 | 1011.8 |
| 20260902105423 | 70 | 270 | 0.9 | 0.9 | 0.00 | 0.00 | 0.00 | 92 | 1011.8 |
| 20260902104809 | 70 | 270 | 0.9 | 0.9 | 0.00 | 0.00 | 0.00 | 92 | 1011.8 |
| 20260902103049 | 70 | 270 | 0.0 | 0.0 | 0.00 | 0.00 | 0.00 | 92 | 1011.8 |
| 20260902102410 | 70 | 248 | 0.0 | 0.0 | 0.00 | 0.00 | 0.00 | 92 | 1011.8 |
| 20260902101226 | 70 | 248 | 0.0 | 0.0 | 0.00 | 0.00 | 0.00 | 93 | 1011.8 |
| 20260902100647 | 70 | 248 | 0.0 | 0.0 | 0.00 | 0.00 | 0.00 | 93 | 1011.8 |
| 20260902100047 | 70 | 248 | 0.0 | 0.0 | 0.00 | 0.00 | 0.00 | 93 | 1011.8 |
| 20260902095431 | 70 | 248 | 0.0 | 0.0 | 0.00 | 0.00 | 0.00 | 92 | 1011.8 |
| 20260902094845 | 70 | 248 | 0.0 | 0.0 | 0.00 | 0.00 | 0.00 | 93 | 1011.8 |
| 20260902094218 | 70 | 248 | 0.0 | 0.0 | 0.00 | 0.00 | 0.00 | 93 | 1011.8 |
| 20260902093642 | 70 | 248 | 0.9 | 0.9 | 0.00 | 0.00 | 0.00 | 92 | 1011.8 |
| 20260902093025 | 70 | 248 | 0.0 | 0.0 | 0.00 | 0.00 | 0.00 | 93 | 1011.8 |
| 20260902092418 | 70 | 248 | 0.0 | 0.0 | 0.00 | 0.00 | 0.00 | 93 | 1011.8 |
| 20260902091820 | 70 | 248 | 0.0 | 0.0 | 0.00 | 0.00 | 0.00 | 93 | 1011.8 |
| 20260902091216 | 70 | 248 | 0.0 | 0.0 | 0.00 | 0.00 | 0.00 | 93 | 1010.8 |
| 20260902090613 | 70 | 248 | 0.0 | 0.0 | 0.00 | 0.00 | 0.00 | 93 | 1010.8 |
| 20260902090043 | 70 | 248 | 0.0 | 0.0 | 0.00 | 0.00 | 0.00 | 93 | 1010.8 |
| 20260902085434 | 70 | 248 | 0.9 | 0.9 | 0.00 | 0.00 | 0.00 | 92 | 1010.8 |
| 20260902084839 | 70 | 248 | 0.0 | 0.0 | 0.00 | 0.00 | 0.00 | 92 | 1010.8 |
| 20260902084212 | 70 | 248 | 0.9 | 0.9 | 0.00 | 0.00 | 0.00 | 93 | 1010.8 |
| 20260902083624 | 70 | 248 | 0.0 | 0.0 | 0.00 | 0.00 | 0.00 | 92 | 1010.8 |
| 20260902083037 | 71 | 248 | 1.7 | 1.7 | 0.00 | 0.00 | 0.00 | 92 | 1010.8 |
| 20260902082429 | 71 | 248 | 1.7 | 1.7 | 0.00 | 0.00 | 0.00 | 92 | 1010.8 |
| 20260902081822 | 71 | 248 | 0.0 | 0.0 | 0.00 | 0.00 | 0.00 | 92 | 1010.8 |
| 20260902080610 | 71 | 248 | 0.0 | 0.0 | 0.00 | 0.00 | 0.00 | 93 | 1011.8 |
| 20260902080014 | 71 | 248 | 0.0 | 0.0 | 0.00 | 0.00 | 0.00 | 93 | 1011.8 |
| 20260902074229 | 71 | 248 | 0.0 | 0.0 | 0.00 | 0.00 | 0.00 | 92 | 1011.8 |
| 20260902073616 | 71 | 248 | 0.0 | 0.0 | 0.00 | 0.00 | 0.00 | 92 | 1011.8 |
| 20260902073027 | 71 | 248 | 1.7 | 1.7 | 0.00 | 0.00 | 0.00 | 92 | 1011.8 |
| 20260902072443 | 71 | 248 | 0.0 | 0.0 | 0.00 | 0.00 | 0.00 | 92 | 1011.8 |
| 20260902071828 | 71 | 248 | 0.0 | 0.0 | 0.00 | 0.00 | 0.00 | 92 | 1011.8 |
| 20260902071230 | 71 | 248 | 0.0 | 0.0 | 0.00 | 0.00 | 0.00 | 92 | 1010.8 |
| 20260902070644 | 71 | 248 | 0.0 | 0.0 | 0.00 | 0.00 | 0.00 | 93 | 1010.8 |
| 20260902070017 | 71 | 248 | 0.0 | 0.0 | 0.00 | 0.00 | 0.00 | 93 | 1010.8 |
| 20260902065448 | 72 | 248 | 0.0 | 0.0 | 0.00 | 0.00 | 0.00 | 92 | 1010.8 |
| 20260902064838 | 72 | 248 | 0.0 | 0.0 | 0.00 | 0.00 | 0.00 | 92 | 1010.8 |
| 20260902064248 | 72 | 248 | 0.0 | 0.0 | 0.00 | 0.00 | 0.00 | 92 | 1011.8 |
| 20260902063632 | 72 | 248 | 1.7 | 1.7 | 0.00 | 0.00 | 0.00 | 92 | 1011.8 |
| 20260902063027 | 72 | 248 | 1.7 | 1.7 | 0.00 | 0.00 | 0.00 | 92 | 1011.8 |